Year,Month,Day,Hour,Minute,Value (Times are PST for temperature in C)
2014,08,26,00,00,18.60
2014,08,26,00,01,18.60
2014,08,26,00,02,18.60
2014,08,26,00,03,18.60
2014,08,26,00,04,18.60
2014,08,26,00,05,18.60
2014,08,26,00,06,18.50
2014,08,26,00,07,18.50
2014,08,26,00,08,18.40
2014,08,26,00,09,18.40
2014,08,26,00,10,18.40
2014,08,26,00,11,18.40
2014,08,26,00,12,18.30
2014,08,26,00,13,18.30
2014,08,26,00,14,18.30
2014,08,26,00,15,18.30
2014,08,26,00,16,18.30
2014,08,26,00,17,18.20
2014,08,26,00,18,18.20
2014,08,26,00,19,18.20
2014,08,26,00,20,18.20
2014,08,26,00,21,18.20
2014,08,26,00,22,18.20
2014,08,26,00,23,18.20
2014,08,26,00,24,18.10
2014,08,26,00,25,18.10
2014,08,26,00,26,18.10
2014,08,26,00,27,18.10
2014,08,26,00,28,18.10
2014,08,26,00,29,18.10
2014,08,26,00,30,18.00
2014,08,26,00,31,18.00
2014,08,26,00,32,18.00
2014,08,26,00,33,18.00
2014,08,26,00,34,17.90
2014,08,26,00,35,17.90
2014,08,26,00,36,17.90
2014,08,26,00,37,17.90
2014,08,26,00,38,17.90
2014,08,26,00,39,17.90
2014,08,26,00,40,17.90
2014,08,26,00,41,17.90
2014,08,26,00,42,17.90
2014,08,26,00,43,17.90
2014,08,26,00,44,17.90
2014,08,26,00,45,17.90
2014,08,26,00,46,17.90
2014,08,26,00,47,17.90
2014,08,26,00,48,17.90
2014,08,26,00,49,17.90
2014,08,26,00,50,17.90
2014,08,26,00,51,17.90
2014,08,26,00,52,17.80
2014,08,26,00,53,17.80
2014,08,26,00,54,17.80
2014,08,26,00,55,17.80
2014,08,26,00,56,17.80
2014,08,26,00,57,17.80
2014,08,26,00,58,17.80
2014,08,26,00,59,17.80
2014,08,26,01,00,17.80
2014,08,26,01,01,17.80
2014,08,26,01,02,17.80
2014,08,26,01,03,17.80
2014,08,26,01,04,17.80
2014,08,26,01,05,17.80
2014,08,26,01,06,17.70
2014,08,26,01,07,17.70
2014,08,26,01,08,17.70
2014,08,26,01,09,17.70
2014,08,26,01,10,17.70
2014,08,26,01,11,17.70
2014,08,26,01,12,17.70
2014,08,26,01,13,17.70
2014,08,26,01,14,17.60
2014,08,26,01,15,17.70
2014,08,26,01,16,17.60
2014,08,26,01,17,17.70
2014,08,26,01,18,17.70
2014,08,26,01,19,17.70
2014,08,26,01,20,17.60
2014,08,26,01,21,17.60
2014,08,26,01,22,17.60
2014,08,26,01,23,17.60
2014,08,26,01,24,17.60
2014,08,26,01,25,17.50
2014,08,26,01,26,17.50
2014,08,26,01,27,17.50
2014,08,26,01,28,17.40
2014,08,26,01,29,17.40
2014,08,26,01,30,17.40
2014,08,26,01,31,17.40
2014,08,26,01,32,17.40
2014,08,26,01,33,17.40
2014,08,26,01,34,17.30
2014,08,26,01,35,17.30
2014,08,26,01,36,17.30
2014,08,26,01,37,17.30
2014,08,26,01,38,17.20
2014,08,26,01,39,17.20
2014,08,26,01,40,17.20
2014,08,26,01,41,17.10
2014,08,26,01,42,17.10
2014,08,26,01,43,17.10
2014,08,26,01,44,17.10
2014,08,26,01,45,17.10
2014,08,26,01,46,17.00
2014,08,26,01,47,17.00
2014,08,26,01,48,17.00
2014,08,26,01,49,17.00
2014,08,26,01,50,17.00
2014,08,26,01,51,16.90
2014,08,26,01,52,16.90
2014,08,26,01,53,16.90
2014,08,26,01,54,16.90
2014,08,26,01,55,16.90
2014,08,26,01,56,16.90
2014,08,26,01,57,16.90
2014,08,26,01,58,16.80
2014,08,26,01,59,16.80
2014,08,26,02,00,16.80
2014,08,26,02,01,16.80
2014,08,26,02,02,16.80
2014,08,26,02,03,16.80
2014,08,26,02,04,16.80
2014,08,26,02,05,16.80
2014,08,26,02,06,16.80
2014,08,26,02,07,16.80
2014,08,26,02,08,16.80
2014,08,26,02,09,16.80
2014,08,26,02,10,16.80
2014,08,26,02,11,16.80
2014,08,26,02,12,16.80
2014,08,26,02,13,16.80
2014,08,26,02,14,16.80
2014,08,26,02,15,16.70
2014,08,26,02,16,16.70
2014,08,26,02,17,16.70
2014,08,26,02,18,16.70
2014,08,26,02,19,16.70
2014,08,26,02,20,16.60
2014,08,26,02,21,16.60
2014,08,26,02,22,16.60
2014,08,26,02,23,16.60
2014,08,26,02,24,16.60
2014,08,26,02,25,16.60
2014,08,26,02,26,16.60
2014,08,26,02,27,16.60
2014,08,26,02,28,16.60
2014,08,26,02,29,16.60
2014,08,26,02,30,16.60
2014,08,26,02,31,16.60
2014,08,26,02,32,16.50
2014,08,26,02,33,16.50
2014,08,26,02,34,16.50
2014,08,26,02,35,16.50
2014,08,26,02,36,16.40
2014,08,26,02,37,16.40
2014,08,26,02,38,16.40
2014,08,26,02,39,16.40
2014,08,26,02,40,16.40
2014,08,26,02,41,16.30
2014,08,26,02,42,16.30
2014,08,26,02,43,16.30
2014,08,26,02,44,16.20
2014,08,26,02,45,16.20
2014,08,26,02,46,16.20
2014,08,26,02,47,16.20
2014,08,26,02,48,16.20
2014,08,26,02,49,16.10
2014,08,26,02,50,16.10
2014,08,26,02,51,16.10
2014,08,26,02,52,16.00
2014,08,26,02,53,16.00
2014,08,26,02,54,16.00
2014,08,26,02,55,16.00
2014,08,26,02,56,16.00
2014,08,26,02,57,16.00
2014,08,26,02,58,16.00
2014,08,26,02,59,15.90
2014,08,26,03,00,15.90
2014,08,26,03,01,15.90
2014,08,26,03,02,15.90
2014,08,26,03,03,15.90
2014,08,26,03,04,15.90
2014,08,26,03,05,15.90
2014,08,26,03,06,15.90
2014,08,26,03,07,15.90
2014,08,26,03,08,15.90
2014,08,26,03,09,15.90
2014,08,26,03,10,15.90
2014,08,26,03,11,15.90
2014,08,26,03,12,15.90
2014,08,26,03,13,15.90
2014,08,26,03,14,15.90
2014,08,26,03,15,15.90
2014,08,26,03,16,15.90
2014,08,26,03,17,15.90
2014,08,26,03,18,15.90
2014,08,26,03,19,15.90
2014,08,26,03,20,15.90
2014,08,26,03,21,15.90
2014,08,26,03,22,15.90
2014,08,26,03,23,15.90
2014,08,26,03,24,15.90
2014,08,26,03,25,15.90
2014,08,26,03,26,15.90
2014,08,26,03,27,15.90
2014,08,26,03,28,16.00
2014,08,26,03,29,16.00
2014,08,26,03,30,16.00
2014,08,26,03,31,16.00
2014,08,26,03,32,16.00
2014,08,26,03,33,16.00
2014,08,26,03,34,16.00
2014,08,26,03,35,16.00
2014,08,26,03,36,16.00
2014,08,26,03,37,15.90
2014,08,26,03,38,15.90
2014,08,26,03,39,15.90
2014,08,26,03,40,15.90
2014,08,26,03,41,15.90
2014,08,26,03,42,15.90
2014,08,26,03,43,15.90
2014,08,26,03,44,15.90
2014,08,26,03,45,15.90
2014,08,26,03,46,15.90
2014,08,26,03,47,15.90
2014,08,26,03,48,15.90
2014,08,26,03,49,15.90
2014,08,26,03,50,16.00
2014,08,26,03,51,16.00
2014,08,26,03,52,16.00
2014,08,26,03,53,16.00
2014,08,26,03,54,16.00
2014,08,26,03,55,16.00
2014,08,26,03,56,16.00
2014,08,26,03,57,16.00
2014,08,26,03,58,16.00
2014,08,26,03,59,16.00
2014,08,26,04,00,16.00
2014,08,26,04,01,16.00
2014,08,26,04,02,15.90
2014,08,26,04,03,15.90
2014,08,26,04,04,15.90
2014,08,26,04,05,15.90
2014,08,26,04,06,15.90
2014,08,26,04,07,15.90
2014,08,26,04,08,15.90
2014,08,26,04,09,15.90
2014,08,26,04,10,15.80
2014,08,26,04,11,15.80
2014,08,26,04,12,15.80
2014,08,26,04,13,15.80
2014,08,26,04,14,15.80
2014,08,26,04,15,15.80
2014,08,26,04,16,15.80
2014,08,26,04,17,15.80
2014,08,26,04,18,15.80
2014,08,26,04,19,15.80
2014,08,26,04,20,15.80
2014,08,26,04,21,15.80
2014,08,26,04,22,15.80
2014,08,26,04,23,15.80
2014,08,26,04,24,15.80
2014,08,26,04,25,15.80
2014,08,26,04,26,15.80
2014,08,26,04,27,15.80
2014,08,26,04,28,15.80
2014,08,26,04,29,15.80
2014,08,26,04,30,15.70
2014,08,26,04,31,15.70
2014,08,26,04,32,15.70
2014,08,26,04,33,15.70
2014,08,26,04,34,15.70
2014,08,26,04,35,15.70
2014,08,26,04,36,15.70
2014,08,26,04,37,15.70
2014,08,26,04,38,15.70
2014,08,26,04,39,15.70
2014,08,26,04,40,15.70
2014,08,26,04,41,15.70
2014,08,26,04,42,15.70
2014,08,26,04,43,15.60
2014,08,26,04,44,15.60
2014,08,26,04,45,15.60
2014,08,26,04,46,15.60
2014,08,26,04,47,15.60
2014,08,26,04,48,15.60
2014,08,26,04,49,15.60
2014,08,26,04,50,15.60
2014,08,26,04,51,15.60
2014,08,26,04,52,15.60
2014,08,26,04,53,15.60
2014,08,26,04,54,15.60
2014,08,26,04,55,15.60
2014,08,26,04,56,15.60
2014,08,26,04,57,15.60
2014,08,26,04,58,15.60
2014,08,26,04,59,15.50
2014,08,26,05,00,15.50
2014,08,26,05,01,15.50
2014,08,26,05,02,15.50
2014,08,26,05,03,15.50
2014,08,26,05,04,15.50
2014,08,26,05,05,15.50
2014,08,26,05,06,15.40
2014,08,26,05,07,15.40
2014,08,26,05,08,15.40
2014,08,26,05,09,15.40
2014,08,26,05,10,15.40
2014,08,26,05,11,15.40
2014,08,26,05,12,15.30
2014,08,26,05,13,15.30
2014,08,26,05,14,15.30
2014,08,26,05,15,15.30
2014,08,26,05,16,15.30
2014,08,26,05,17,15.20
2014,08,26,05,18,15.20
2014,08,26,05,19,15.20
2014,08,26,05,20,15.20
2014,08,26,05,21,15.20
2014,08,26,05,22,15.20
2014,08,26,05,23,15.10
2014,08,26,05,24,15.10
2014,08,26,05,25,15.10
2014,08,26,05,26,15.10
2014,08,26,05,27,15.10
2014,08,26,05,28,15.10
2014,08,26,05,29,15.00
2014,08,26,05,30,15.00
2014,08,26,05,31,15.00
2014,08,26,05,32,15.00
2014,08,26,05,33,15.00
2014,08,26,05,34,14.90
2014,08,26,05,35,14.90
2014,08,26,05,36,14.90
2014,08,26,05,37,14.90
2014,08,26,05,38,14.90
2014,08,26,05,39,14.90
2014,08,26,05,40,14.90
2014,08,26,05,41,14.90
2014,08,26,05,42,14.90
2014,08,26,05,43,14.90
2014,08,26,05,44,14.90
2014,08,26,05,45,14.90
2014,08,26,05,46,14.90
2014,08,26,05,47,14.90
2014,08,26,05,48,14.90
2014,08,26,05,49,14.90
2014,08,26,05,50,14.90
2014,08,26,05,51,14.90
2014,08,26,05,52,14.90
2014,08,26,05,53,14.90
2014,08,26,05,54,14.90
2014,08,26,05,55,14.90
2014,08,26,05,56,14.90
2014,08,26,05,57,14.90
2014,08,26,05,58,14.90
2014,08,26,05,59,14.80
2014,08,26,06,00,14.80
2014,08,26,06,01,14.80
2014,08,26,06,02,14.80
2014,08,26,06,03,14.80
2014,08,26,06,04,14.80
2014,08,26,06,05,14.80
2014,08,26,06,06,14.80
2014,08,26,06,07,14.70
2014,08,26,06,08,14.70
2014,08,26,06,09,14.70
2014,08,26,06,10,14.70
2014,08,26,06,11,14.70
2014,08,26,06,12,14.70
2014,08,26,06,13,14.70
2014,08,26,06,14,14.70
2014,08,26,06,15,14.70
2014,08,26,06,16,14.70
2014,08,26,06,17,14.70
2014,08,26,06,18,14.70
2014,08,26,06,19,14.70
2014,08,26,06,20,14.70
2014,08,26,06,21,14.70
2014,08,26,06,22,14.70
2014,08,26,06,23,14.70
2014,08,26,06,24,14.60
2014,08,26,06,25,14.60
2014,08,26,06,26,14.60
2014,08,26,06,27,14.60
2014,08,26,06,28,14.60
2014,08,26,06,29,14.60
2014,08,26,06,30,14.60
2014,08,26,06,31,14.60
2014,08,26,06,32,14.60
2014,08,26,06,33,14.60
2014,08,26,06,34,14.60
2014,08,26,06,35,14.60
2014,08,26,06,36,14.50
2014,08,26,06,37,14.50
2014,08,26,06,38,14.50
2014,08,26,06,39,14.50
2014,08,26,06,40,14.50
2014,08,26,06,41,14.50
2014,08,26,06,42,14.50
2014,08,26,06,43,14.40
2014,08,26,06,44,14.40
2014,08,26,06,45,14.40
2014,08,26,06,46,14.40
2014,08,26,06,47,14.40
2014,08,26,06,48,14.40
2014,08,26,06,49,14.40
2014,08,26,06,50,14.40
2014,08,26,06,51,14.40
2014,08,26,06,52,14.40
2014,08,26,06,53,14.40
2014,08,26,06,54,14.40
2014,08,26,06,55,14.40
2014,08,26,06,56,14.40
2014,08,26,06,57,14.50
2014,08,26,06,58,14.50
2014,08,26,06,59,14.50
2014,08,26,07,00,14.50
2014,08,26,07,01,14.50
2014,08,26,07,02,14.50
2014,08,26,07,03,14.50
2014,08,26,07,04,14.50
2014,08,26,07,05,14.50
2014,08,26,07,06,14.60
2014,08,26,07,07,14.60
2014,08,26,07,08,14.60
2014,08,26,07,09,14.60
2014,08,26,07,10,14.60
2014,08,26,07,11,14.60
2014,08,26,07,12,14.60
2014,08,26,07,13,14.60
2014,08,26,07,14,14.70
2014,08,26,07,15,14.70
2014,08,26,07,16,14.70
2014,08,26,07,17,14.70
2014,08,26,07,18,14.70
2014,08,26,07,19,14.70
2014,08,26,07,20,14.80
2014,08,26,07,21,14.80
2014,08,26,07,22,14.80
2014,08,26,07,23,14.80
2014,08,26,07,24,14.80
2014,08,26,07,25,14.80
2014,08,26,07,26,14.80
2014,08,26,07,27,14.80
2014,08,26,07,28,14.90
2014,08,26,07,29,14.90
2014,08,26,07,30,14.90
2014,08,26,07,31,15.00
2014,08,26,07,32,15.00
2014,08,26,07,33,15.10
2014,08,26,07,34,15.10
2014,08,26,07,35,15.10
2014,08,26,07,36,15.10
2014,08,26,07,37,15.20
2014,08,26,07,38,15.20
2014,08,26,07,39,15.20
2014,08,26,07,40,15.20
2014,08,26,07,41,15.30
2014,08,26,07,42,15.30
2014,08,26,07,43,15.30
2014,08,26,07,44,15.30
2014,08,26,07,45,15.30
2014,08,26,07,46,15.30
2014,08,26,07,47,15.30
2014,08,26,07,48,15.30
2014,08,26,07,49,15.40
2014,08,26,07,50,15.40
2014,08,26,07,51,15.40
2014,08,26,07,52,15.40
2014,08,26,07,53,15.50
2014,08,26,07,54,15.50
2014,08,26,07,55,15.50
2014,08,26,07,56,15.50
2014,08,26,07,57,15.60
2014,08,26,07,58,15.60
2014,08,26,07,59,15.60
2014,08,26,08,00,15.60
2014,08,26,08,01,15.60
2014,08,26,08,02,15.60
2014,08,26,08,03,15.60
2014,08,26,08,04,15.70
2014,08,26,08,05,15.70
2014,08,26,08,06,15.70
2014,08,26,08,07,15.70
2014,08,26,08,08,15.70
2014,08,26,08,09,15.80
2014,08,26,08,10,15.80
2014,08,26,08,11,15.80
2014,08,26,08,12,15.80
2014,08,26,08,13,15.90
2014,08,26,08,14,15.90
2014,08,26,08,15,16.00
2014,08,26,08,16,16.00
2014,08,26,08,17,16.10
2014,08,26,08,18,16.20
2014,08,26,08,19,16.20
2014,08,26,08,20,16.30
2014,08,26,08,21,16.40
2014,08,26,08,22,16.40
2014,08,26,08,23,16.50
2014,08,26,08,24,16.60
2014,08,26,08,25,16.60
2014,08,26,08,26,16.70
2014,08,26,08,27,16.70
2014,08,26,08,28,16.80
2014,08,26,08,29,16.80
2014,08,26,08,30,16.90
2014,08,26,08,31,16.90
2014,08,26,08,32,16.90
2014,08,26,08,33,17.00
2014,08,26,08,34,17.00
2014,08,26,08,35,17.10
2014,08,26,08,36,17.20
2014,08,26,08,37,17.30
2014,08,26,08,38,17.30
2014,08,26,08,39,17.40
2014,08,26,08,40,17.50
2014,08,26,08,41,17.50
2014,08,26,08,42,17.60
2014,08,26,08,43,17.70
2014,08,26,08,44,17.70
2014,08,26,08,45,17.80
2014,08,26,08,46,17.90
2014,08,26,08,47,18.00
2014,08,26,08,48,18.00
2014,08,26,08,49,18.10
2014,08,26,08,50,18.20
2014,08,26,08,51,18.30
2014,08,26,08,52,18.40
2014,08,26,08,53,18.40
2014,08,26,08,54,18.50
2014,08,26,08,55,18.50
2014,08,26,08,56,18.60
2014,08,26,08,57,18.60
2014,08,26,08,58,18.70
2014,08,26,08,59,18.70
2014,08,26,09,00,18.80
2014,08,26,09,01,18.80
2014,08,26,09,02,18.90
2014,08,26,09,03,19.00
2014,08,26,09,04,19.00
2014,08,26,09,05,19.10
2014,08,26,09,06,19.10
2014,08,26,09,07,19.20
2014,08,26,09,08,19.20
2014,08,26,09,09,19.20
2014,08,26,09,10,19.30
2014,08,26,09,11,19.30
2014,08,26,09,12,19.30
2014,08,26,09,13,19.30
2014,08,26,09,14,19.30
2014,08,26,09,15,19.30
2014,08,26,09,16,19.30
2014,08,26,09,17,19.30
2014,08,26,09,18,19.30
2014,08,26,09,19,19.30
2014,08,26,09,20,19.30
2014,08,26,09,21,19.20
2014,08,26,09,22,19.10
2014,08,26,09,23,19.00
2014,08,26,09,24,18.90
2014,08,26,09,25,18.80
2014,08,26,09,26,18.80
2014,08,26,09,27,18.70
2014,08,26,09,28,18.70
2014,08,26,09,29,18.70
2014,08,26,09,30,18.70
2014,08,26,09,31,18.70
2014,08,26,09,32,18.70
2014,08,26,09,33,18.70
2014,08,26,09,34,18.70
2014,08,26,09,35,18.60
2014,08,26,09,36,18.50
2014,08,26,09,37,18.50
2014,08,26,09,38,18.50
2014,08,26,09,39,18.40
2014,08,26,09,40,18.40
2014,08,26,09,41,18.50
2014,08,26,09,42,18.50
2014,08,26,09,43,18.50
2014,08,26,09,44,18.50
2014,08,26,09,45,18.50
2014,08,26,09,46,18.50
2014,08,26,09,47,18.50
2014,08,26,09,48,18.50
2014,08,26,09,49,18.50
2014,08,26,09,50,18.60
2014,08,26,09,51,18.60
2014,08,26,09,52,18.70
2014,08,26,09,53,18.70
2014,08,26,09,54,18.70
2014,08,26,09,55,18.80
2014,08,26,09,56,18.80
2014,08,26,09,57,18.80
2014,08,26,09,58,18.90
2014,08,26,09,59,18.90
2014,08,26,10,00,19.00
2014,08,26,10,01,19.10
2014,08,26,10,02,19.20
2014,08,26,10,03,19.30
2014,08,26,10,04,19.40
2014,08,26,10,05,19.50
2014,08,26,10,06,19.70
2014,08,26,10,07,19.80
2014,08,26,10,08,19.90
2014,08,26,10,09,20.00
2014,08,26,10,10,20.10
2014,08,26,10,11,20.20
2014,08,26,10,12,20.30
2014,08,26,10,13,20.40
2014,08,26,10,14,20.50
2014,08,26,10,15,20.50
2014,08,26,10,16,20.60
2014,08,26,10,17,20.70
2014,08,26,10,18,20.70
2014,08,26,10,19,20.70
2014,08,26,10,20,20.80
2014,08,26,10,21,20.80
2014,08,26,10,22,20.80
2014,08,26,10,23,20.80
2014,08,26,10,24,20.90
2014,08,26,10,25,20.90
2014,08,26,10,26,21.00
2014,08,26,10,27,21.00
2014,08,26,10,28,21.10
2014,08,26,10,29,21.10
2014,08,26,10,30,21.20
2014,08,26,10,31,21.20
2014,08,26,10,32,21.20
2014,08,26,10,33,21.20
2014,08,26,10,34,21.20
2014,08,26,10,35,21.10
2014,08,26,10,36,21.10
2014,08,26,10,37,21.00
2014,08,26,10,38,21.00
2014,08,26,10,39,21.00
2014,08,26,10,40,21.00
2014,08,26,10,41,21.00
2014,08,26,10,42,21.00
2014,08,26,10,43,21.10
2014,08,26,10,44,21.10
2014,08,26,10,45,21.10
2014,08,26,10,46,21.10
2014,08,26,10,47,21.10
2014,08,26,10,48,21.10
2014,08,26,10,49,21.10
2014,08,26,10,50,21.10
2014,08,26,10,51,21.10
2014,08,26,10,52,21.10
2014,08,26,10,53,21.10
2014,08,26,10,54,21.20
2014,08,26,10,55,21.20
2014,08,26,10,56,21.20
2014,08,26,10,57,21.30
2014,08,26,10,58,21.30
2014,08,26,10,59,21.30
2014,08,26,11,00,21.30
2014,08,26,11,01,21.40
2014,08,26,11,02,21.40
2014,08,26,11,03,21.40
2014,08,26,11,04,21.50
2014,08,26,11,05,21.50
2014,08,26,11,06,21.50
2014,08,26,11,07,21.60
2014,08,26,11,08,21.60
2014,08,26,11,09,21.70
2014,08,26,11,10,21.80
2014,08,26,11,11,21.80
2014,08,26,11,12,21.80
2014,08,26,11,13,21.80
2014,08,26,11,14,21.70
2014,08,26,11,15,21.70
2014,08,26,11,16,21.70
2014,08,26,11,17,21.70
2014,08,26,11,18,21.70
2014,08,26,11,19,21.70
2014,08,26,11,20,21.60
2014,08,26,11,21,21.60
2014,08,26,11,22,21.70
2014,08,26,11,23,21.70
2014,08,26,11,24,21.70
2014,08,26,11,25,21.70
2014,08,26,11,26,21.80
2014,08,26,11,27,21.80
2014,08,26,11,28,21.80
2014,08,26,11,29,21.80
2014,08,26,11,30,21.80
2014,08,26,11,31,21.80
2014,08,26,11,32,21.80
2014,08,26,11,33,21.70
2014,08,26,11,34,21.60
2014,08,26,11,35,21.60
2014,08,26,11,36,21.60
2014,08,26,11,37,21.60
2014,08,26,11,38,21.60
2014,08,26,11,39,21.60
2014,08,26,11,40,21.70
2014,08,26,11,41,21.70
2014,08,26,11,42,21.70
2014,08,26,11,43,21.80
2014,08,26,11,44,21.80
2014,08,26,11,45,21.80
2014,08,26,11,46,21.90
2014,08,26,11,47,21.90
2014,08,26,11,48,21.90
2014,08,26,11,49,22.00
2014,08,26,11,50,22.00
2014,08,26,11,51,22.10
2014,08,26,11,52,22.10
2014,08,26,11,53,22.20
2014,08,26,11,54,22.20
2014,08,26,11,55,22.20
2014,08,26,11,56,22.30
2014,08,26,11,57,22.30
2014,08,26,11,58,22.40
2014,08,26,11,59,22.40
2014,08,26,12,00,22.40
2014,08,26,12,01,22.40
2014,08,26,12,02,22.40
2014,08,26,12,03,22.40
2014,08,26,12,04,22.40
2014,08,26,12,05,22.40
2014,08,26,12,06,22.30
2014,08,26,12,07,22.30
2014,08,26,12,08,22.30
2014,08,26,12,09,22.30
2014,08,26,12,10,22.30
2014,08,26,12,11,22.30
2014,08,26,12,12,22.20
2014,08,26,12,13,22.20
2014,08,26,12,14,22.10
2014,08,26,12,15,22.10
2014,08,26,12,16,22.00
2014,08,26,12,17,21.90
2014,08,26,12,18,21.90
2014,08,26,12,19,21.90
2014,08,26,12,20,21.90
2014,08,26,12,21,21.90
2014,08,26,12,22,21.90
2014,08,26,12,23,21.90
2014,08,26,12,24,21.90
2014,08,26,12,25,21.90
2014,08,26,12,26,22.00
2014,08,26,12,27,22.00
2014,08,26,12,28,22.10
2014,08,26,12,29,22.20
2014,08,26,12,30,22.30
2014,08,26,12,31,22.30
2014,08,26,12,32,22.40
2014,08,26,12,33,22.40
2014,08,26,12,34,22.40
2014,08,26,12,35,22.40
2014,08,26,12,36,22.40
2014,08,26,12,37,22.30
2014,08,26,12,38,22.30
2014,08,26,12,39,22.20
2014,08,26,12,40,22.10
2014,08,26,12,41,22.00
2014,08,26,12,42,22.00
2014,08,26,12,43,21.90
2014,08,26,12,44,21.80
2014,08,26,12,45,21.80
2014,08,26,12,46,21.80
2014,08,26,12,47,21.80
2014,08,26,12,48,21.80
2014,08,26,12,49,21.80
2014,08,26,12,50,21.80
2014,08,26,12,51,21.80
2014,08,26,12,52,21.80
2014,08,26,12,53,21.80
2014,08,26,12,54,21.80
2014,08,26,12,55,21.80
2014,08,26,12,56,21.90
2014,08,26,12,57,22.00
2014,08,26,12,58,22.10
2014,08,26,12,59,22.10
2014,08,26,13,00,22.10
2014,08,26,13,01,22.00
2014,08,26,13,02,22.00
2014,08,26,13,03,21.90
2014,08,26,13,04,21.90
2014,08,26,13,05,21.80
2014,08,26,13,06,21.90
2014,08,26,13,07,21.90
2014,08,26,13,08,22.00
2014,08,26,13,09,22.00
2014,08,26,13,10,22.10
2014,08,26,13,11,22.20
2014,08,26,13,12,22.20
2014,08,26,13,13,22.30
2014,08,26,13,14,22.30
2014,08,26,13,15,22.30
2014,08,26,13,16,22.30
2014,08,26,13,17,22.30
2014,08,26,13,18,22.30
2014,08,26,13,19,22.30
2014,08,26,13,20,22.30
2014,08,26,13,21,22.30
2014,08,26,13,22,22.30
2014,08,26,13,23,22.40
2014,08,26,13,24,22.40
2014,08,26,13,25,22.50
2014,08,26,13,26,22.50
2014,08,26,13,27,22.60
2014,08,26,13,28,22.70
2014,08,26,13,29,22.70
2014,08,26,13,30,22.70
2014,08,26,13,31,22.60
2014,08,26,13,32,22.60
2014,08,26,13,33,22.60
2014,08,26,13,34,22.70
2014,08,26,13,35,22.70
2014,08,26,13,36,22.70
2014,08,26,13,37,22.80
2014,08,26,13,38,22.80
2014,08,26,13,39,22.90
2014,08,26,13,40,22.90
2014,08,26,13,41,23.00
2014,08,26,13,42,23.10
2014,08,26,13,43,23.20
2014,08,26,13,44,23.30
2014,08,26,13,45,23.40
2014,08,26,13,46,23.40
2014,08,26,13,47,23.40
2014,08,26,13,48,23.50
2014,08,26,13,49,23.50
2014,08,26,13,50,23.40
2014,08,26,13,51,23.30
2014,08,26,13,52,23.20
2014,08,26,13,53,23.10
2014,08,26,13,54,23.00
2014,08,26,13,55,22.90
2014,08,26,13,56,22.90
2014,08,26,13,57,22.90
2014,08,26,13,58,22.90
2014,08,26,13,59,22.90
2014,08,26,14,00,22.90
2014,08,26,14,01,22.80
2014,08,26,14,02,22.80
2014,08,26,14,03,22.70
2014,08,26,14,04,22.60
2014,08,26,14,05,22.60
2014,08,26,14,06,22.60
2014,08,26,14,07,22.60
2014,08,26,14,08,22.60
2014,08,26,14,09,22.60
2014,08,26,14,10,22.60
2014,08,26,14,11,22.60
2014,08,26,14,12,22.60
2014,08,26,14,13,22.60
2014,08,26,14,14,22.70
2014,08,26,14,15,22.80
2014,08,26,14,16,22.80
2014,08,26,14,17,22.90
2014,08,26,14,18,23.00
2014,08,26,14,19,23.00
2014,08,26,14,20,23.10
2014,08,26,14,21,23.20
2014,08,26,14,22,23.30
2014,08,26,14,23,23.30
2014,08,26,14,24,23.40
2014,08,26,14,25,23.50
2014,08,26,14,26,23.50
2014,08,26,14,27,23.60
2014,08,26,14,28,23.70
2014,08,26,14,29,23.70
2014,08,26,14,30,23.80
2014,08,26,14,31,23.90
2014,08,26,14,32,23.90
2014,08,26,14,33,23.90
2014,08,26,14,34,23.90
2014,08,26,14,35,23.90
2014,08,26,14,36,23.90
2014,08,26,14,37,23.90
2014,08,26,14,38,23.90
2014,08,26,14,39,23.90
2014,08,26,14,40,23.90
2014,08,26,14,41,23.80
2014,08,26,14,42,23.80
2014,08,26,14,43,23.60
2014,08,26,14,44,23.60
2014,08,26,14,45,23.50
2014,08,26,14,46,23.50
2014,08,26,14,47,23.40
2014,08,26,14,48,23.40
2014,08,26,14,49,23.40
2014,08,26,14,50,23.50
2014,08,26,14,51,23.60
2014,08,26,14,52,23.60
2014,08,26,14,53,23.60
2014,08,26,14,54,23.60
2014,08,26,14,55,23.70
2014,08,26,14,56,23.70
2014,08,26,14,57,23.70
2014,08,26,14,58,23.70
2014,08,26,14,59,23.70
2014,08,26,15,00,23.80
2014,08,26,15,01,23.80
2014,08,26,15,02,23.80
2014,08,26,15,03,23.80
2014,08,26,15,04,23.80
2014,08,26,15,05,23.90
2014,08,26,15,06,23.90
2014,08,26,15,07,23.90
2014,08,26,15,08,23.90
2014,08,26,15,09,23.90
2014,08,26,15,10,23.90
2014,08,26,15,11,23.90
2014,08,26,15,12,23.80
2014,08,26,15,13,23.80
2014,08,26,15,14,23.80
2014,08,26,15,15,23.90
2014,08,26,15,16,23.90
2014,08,26,15,17,23.90
2014,08,26,15,18,23.90
2014,08,26,15,19,23.90
2014,08,26,15,20,23.90
2014,08,26,15,21,23.90
2014,08,26,15,22,23.90
2014,08,26,15,23,24.00
2014,08,26,15,24,24.00
2014,08,26,15,25,23.90
2014,08,26,15,26,23.90
2014,08,26,15,27,23.90
2014,08,26,15,28,23.90
2014,08,26,15,29,23.90
2014,08,26,15,30,23.90
2014,08,26,15,31,23.90
2014,08,26,15,32,23.90
2014,08,26,15,33,23.90
2014,08,26,15,34,23.90
2014,08,26,15,35,23.90
2014,08,26,15,36,23.90
2014,08,26,15,37,23.80
2014,08,26,15,38,23.80
2014,08,26,15,39,23.80
2014,08,26,15,40,23.80
2014,08,26,15,41,23.80
2014,08,26,15,42,23.80
2014,08,26,15,43,23.80
2014,08,26,15,44,23.80
2014,08,26,15,45,23.70
2014,08,26,15,46,23.70
2014,08,26,15,47,23.70
2014,08,26,15,48,23.70
2014,08,26,15,49,23.70
2014,08,26,15,50,23.70
2014,08,26,15,51,23.70
2014,08,26,15,52,23.60
2014,08,26,15,53,23.60
2014,08,26,15,54,23.70
2014,08,26,15,55,23.70
2014,08,26,15,56,23.70
2014,08,26,15,57,23.80
2014,08,26,15,58,23.80
2014,08,26,15,59,23.80
2014,08,26,16,00,23.80
2014,08,26,16,01,23.90
2014,08,26,16,02,23.90
2014,08,26,16,03,23.90
2014,08,26,16,04,23.90
2014,08,26,16,05,23.90
2014,08,26,16,06,24.00
2014,08,26,16,07,24.10
2014,08,26,16,08,24.10
2014,08,26,16,09,24.10
2014,08,26,16,10,24.10
2014,08,26,16,11,24.10
2014,08,26,16,12,24.10
2014,08,26,16,13,24.10
2014,08,26,16,14,24.10
2014,08,26,16,15,24.20
2014,08,26,16,16,24.20
2014,08,26,16,17,24.20
2014,08,26,16,18,24.20
2014,08,26,16,19,24.20
2014,08,26,16,20,24.30
2014,08,26,16,21,24.30
2014,08,26,16,22,24.30
2014,08,26,16,23,24.30
2014,08,26,16,24,24.30
2014,08,26,16,25,24.30
2014,08,26,16,26,24.20
2014,08,26,16,27,24.20
2014,08,26,16,28,24.20
2014,08,26,16,29,24.20
2014,08,26,16,30,24.20
2014,08,26,16,31,24.20
2014,08,26,16,32,24.20
2014,08,26,16,33,24.20
2014,08,26,16,34,24.30
2014,08,26,16,35,24.30
2014,08,26,16,36,24.40
2014,08,26,16,37,24.40
2014,08,26,16,38,24.40
2014,08,26,16,39,24.50
2014,08,26,16,40,24.50
2014,08,26,16,41,24.50
2014,08,26,16,42,24.50
2014,08,26,16,43,24.50
2014,08,26,16,44,24.50
2014,08,26,16,45,24.50
2014,08,26,16,46,24.50
2014,08,26,16,47,24.50
2014,08,26,16,48,24.40
2014,08,26,16,49,24.40
2014,08,26,16,50,24.40
2014,08,26,16,51,24.40
2014,08,26,16,52,24.40
2014,08,26,16,53,24.30
2014,08,26,16,54,24.30
2014,08,26,16,55,24.30
2014,08,26,16,56,24.20
2014,08,26,16,57,24.20
2014,08,26,16,58,24.10
2014,08,26,16,59,24.10
2014,08,26,17,00,24.10
2014,08,26,17,01,24.10
2014,08,26,17,02,24.00
2014,08,26,17,03,24.00
2014,08,26,17,04,24.00
2014,08,26,17,05,24.10
2014,08,26,17,06,24.10
2014,08,26,17,07,24.10
2014,08,26,17,08,24.10
2014,08,26,17,09,24.10
2014,08,26,17,10,24.10
2014,08,26,17,11,24.10
2014,08,26,17,12,24.10
2014,08,26,17,13,24.20
2014,08,26,17,14,24.20
2014,08,26,17,15,24.10
2014,08,26,17,16,24.10
2014,08,26,17,17,24.10
2014,08,26,17,18,24.00
2014,08,26,17,19,24.00